GW6920 Weather Reports


time (UTC)temp
F
wind
direction
speed
knots
gust
knots
rain 1hr
in
rain 24hr
in
rain mn
in
humidity
%
barometer
mb
20260505183916 86 181 1.7 5.2 0.00 0.00 0.00 27 1010.3
20260505183413 85 250 0.9 2.6 0.00 0.00 0.00 26 1010.2
20260505182909 86 94 1.7 2.6 0.00 0.00 0.00 26 1010.3
20260505182406 85 0 3.5 6.1 0.00 0.00 0.00 26 1010.3
20260505181903 85 188 2.6 11.3 0.00 0.00 0.00 26 1010.5
20260505181400 84 269 1.7 2.6 0.00 0.00 0.00 28 1010.5
20260505180857 84 155 0.9 2.6 0.00 0.00 0.00 28 1010.3
20260505180353 85 129 2.6 5.2 0.00 0.00 0.00 28 1010.7
20260505175850 86 115 1.7 5.2 0.00 0.00 0.00 28 1010.9
20260505175346 85 185 0.9 2.6 0.00 0.00 0.00 29 1010.7
20260505174843 84 61 0.0 1.7 0.00 0.00 0.00 31 1010.9
20260505174340 84 123 2.6 3.5 0.00 0.00 0.00 28 1010.7
20260505173836 85 125 2.6 3.5 0.00 0.00 0.00 28 1010.7
20260505173333 85 303 0.0 3.5 0.00 0.00 0.00 31 1010.8
20260505172830 85 205 1.7 5.2 0.00 0.00 0.00 30 1010.8
20260505172328 84 258 0.9 1.7 0.00 0.00 0.00 31 1010.5
20260505171827 84 110 1.7 2.6 0.00 0.00 0.00 30 1010.9
20260505171324 83 215 1.7 2.6 0.00 0.00 0.00 30 1011.0
20260505170821 83 327 0.9 2.6 0.00 0.00 0.00 32 1011.0
20260505170318 84 302 1.7 7.0 0.00 0.00 0.00 29 1011.0
20260505165813 83 102 2.6 3.5 0.00 0.00 0.00 32 1011.1
20260505165309 82 81 1.7 5.2 0.00 0.00 0.00 32 1011.3
20260505164804 82 106 1.7 2.6 0.00 0.00 0.00 34 1011.0
20260505164302 81 104 0.9 2.6 0.00 0.00 0.00 34 1011.2
20260505163800 81 150 0.9 2.6 0.00 0.00 0.00 33 1011.3
20260505163258 81 94 0.9 2.6 0.00 0.00 0.00 34 1011.4
20260505162756 81 125 1.7 2.6 0.00 0.00 0.00 36 1011.7
20260505162252 81 306 1.7 6.1 0.00 0.00 0.00 35 1011.8
20260505161749 80 165 0.9 1.7 0.00 0.00 0.00 37 1011.8
20260505161247 80 118 1.7 1.7 0.00 0.00 0.00 35 1011.8
20260505160744 79 94 1.7 2.6 0.00 0.00 0.00 37 1012.0
20260505160242 79 143 0.9 1.7 0.00 0.00 0.00 36 1011.9
20260505153221 77 125 0.9 3.5 0.00 0.00 0.00 39 1012.1
20260505152718 77 261 0.9 1.7 0.00 0.00 0.00 41 1012.0
20260505152214 76 113 0.9 1.7 0.00 0.00 0.00 41 1012.2
20260505151709 75 88 0.9 1.7 0.00 0.00 0.00 42 1011.9
20260505151207 75 235 0.9 3.5 0.00 0.00 0.00 42 1012.2
20260505150702 75 284 1.7 5.2 0.00 0.00 0.00 42 1012.3
20260505150200 74 119 0.9 0.9 0.00 0.00 0.00 43 1012.1
20260505140633 72 285 2.6 3.5 0.00 0.00 0.00 44 1012.1
20260505140130 72 241 2.6 5.2 0.00 0.00 0.00 44 1012.2
20260505124543 66 271 1.7 2.6 0.00 0.00 0.00 50 1012.6
20260505124039 65 325 0.9 3.5 0.00 0.00 0.00 50 1012.5
20260505123536 65 195 1.7 5.2 0.00 0.00 0.00 51 1012.7
20260505123032 65 287 0.9 0.9 0.00 0.00 0.00 50 1012.7
20260505122529 65 255 1.7 2.6 0.00 0.00 0.00 50 1012.5
20260505122026 64 261 0.0 2.6 0.00 0.00 0.00 52 1012.3
20260505121523 64 311 0.0 0.9 0.00 0.00 0.00 52 1012.6
20260505121019 64 263 1.7 2.6 0.00 0.00 0.00 52 1012.2
20260505120516 64 287 0.0 0.9 0.00 0.00 0.00 53 1012.5
20260505120011 63 286 1.7 5.2 0.00 0.00 0.00 53 1012.1
20260505115506 63 354 0.9 1.7 0.00 0.00 0.00 53 1012.0
20260505115004 62 233 0.9 0.9 0.00 0.00 0.00 54 1012.3
20260505114501 62 298 0.0 0.9 0.00 0.00 0.00 54 1011.9
20260505113957 62 199 0.9 1.7 0.00 0.00 0.00 55 1012.0
20260505113454 61 249 0.9 0.9 0.00 0.00 0.00 55 1012.1
20260505112949 61 247 0.0 0.9 0.00 0.00 0.00 55 1011.8
20260505112447 61 245 0.0 0.9 0.00 0.00 0.00 56 1012.1
20260505111944 61 286 0.0 0.0 0.00 0.00 0.00 56 1011.9
20260505111443 61 238 0.9 1.7 0.00 0.00 0.00 55 1011.9
20260505110940 62 245 0.0 0.0 0.00 0.00 0.00 55 1011.9
20260505110437 61 253 0.0 0.9 0.00 0.00 0.00 55 1011.8
20260505101908 60 272 0.9 1.7 0.00 0.00 0.00 55 1011.4
20260505101403 60 53 0.0 0.9 0.00 0.00 0.00 55 1011.3
20260505100859 60 290 0.9 1.7 0.00 0.00 0.00 55 1011.4
20260505100355 60 287 0.0 1.7 0.00 0.00 0.00 55 1011.4
20260505095851 60 304 0.9 1.7 0.00 0.00 0.00 55 1011.3
20260505095349 60 320 0.0 1.7 0.00 0.00 0.00 56 1011.3
20260505094845 60 258 0.9 1.7 0.00 0.00 0.00 56 1011.2
20260505094342 60 292 0.9 0.9 0.00 0.00 0.00 56 1011.2
20260505093837 60 242 0.9 1.7 0.00 0.00 0.00 56 1011.1
20260505093335 60 111 0.0 0.9 0.00 0.00 0.00 56 1011.1
20260505092832 60 152 0.0 0.9 0.00 0.00 0.00 57 1011.4
20260505092330 60 296 0.0 1.7 0.00 0.00 0.00 56 1011.2
20260505091827 60 350 0.0 0.9 0.00 0.00 0.00 57 1010.9
20260505091325 60 263 0.9 1.7 0.00 0.00 0.00 56 1011.0
20260505090823 60 229 0.9 2.6 0.00 0.00 0.00 57 1011.0
20260505090321 60 249 0.0 0.0 0.00 0.00 0.00 58 1010.9
20260505085818 60 337 0.0 0.9 0.00 0.00 0.00 58 1011.0
20260505085316 60 244 0.0 0.9 0.00 0.00 0.00 58 1010.9
20260505084813 60 285 0.0 0.9 0.00 0.00 0.00 58 1011.1
20260505084312 60 262 0.0 0.0 0.00 0.00 0.00 59 1011.2
20260505083808 60 291 0.0 0.9 0.00 0.00 0.00 60 1011.2
20260505083306 60 235 0.9 1.7 0.00 0.00 0.00 60 1011.0
20260505082802 60 263 0.0 0.9 0.00 0.00 0.00 60 1011.1
20260505082259 60 1 0.0 0.9 0.00 0.00 0.00 60 1011.0
20260505081755 60 232 1.7 2.6 0.00 0.00 0.00 60 1011.1
20260505081252 60 227 0.0 0.9 0.00 0.00 0.00 61 1010.9
20260505080749 60 224 0.0 0.9 0.00 0.00 0.00 61 1011.1
20260505080244 60 245 0.0 0.9 0.00 0.00 0.00 61 1010.8
20260505075740 60 195 0.9 1.7 0.00 0.00 0.00 61 1010.7
20260505075237 60 332 0.0 0.0 0.00 0.00 0.00 61 1010.8
20260505074735 60 333 0.0 0.9 0.00 0.00 0.00 60 1010.9
20260505074232 60 284 0.0 0.0 0.00 0.00 0.00 60 1010.9
20260505073729 60 273 0.0 0.9 0.00 0.00 0.00 59 1010.7
20260505073227 60 223 0.0 0.9 0.00 0.00 0.00 60 1010.9
20260505072723 59 247 0.0 1.7 0.00 0.00 0.00 61 1010.7
20260505072220 59 266 0.9 1.7 0.00 0.00 0.00 62 1010.7
20260505071715 59 254 0.0 0.0 0.00 0.00 0.00 62 1010.6
20260505071213 59 254 0.0 0.0 0.00 0.00 0.00 61 1010.7
20260505070710 59 254 0.0 0.9 0.00 0.00 0.00 61 1010.8
20260505070206 59 243 0.0 0.9 0.00 0.00 0.00 61 1010.6
20260505065702 59 271 0.9 0.9 0.00 0.00 0.00 61 1010.8
20260505065159 59 270 0.0 0.0 0.00 0.00 0.00 61 1010.7
20260505064656 59 270 0.0 0.0 0.00 0.00 0.00 61 1010.8
20260505064154 59 270 0.0 0.0 0.00 0.00 0.00 62 1010.7
20260505063651 58 271 0.0 0.0 0.00 0.00 0.00 63 1010.6
20260505063147 58 268 0.0 0.9 0.00 0.00 0.00 64 1010.6
20260505062643 57 267 0.0 0.0 0.00 0.00 0.00 65 1010.6
20260505062141 57 267 0.0 0.0 0.00 0.00 0.00 66 1010.7
20260505061638 56 267 0.0 0.0 0.00 0.00 0.00 67 1010.7
20260505061136 56 267 0.0 0.9 0.00 0.00 0.00 69 1010.8
20260505060633 57 267 0.0 0.0 0.00 0.00 0.00 69 1010.4
20260505060130 57 267 0.0 0.0 0.00 0.00 0.00 68 1010.6
20260505055625 57 267 0.0 0.0 0.00 0.00 0.00 68 1010.5
20260505055122 57 267 0.0 0.9 0.00 0.00 0.00 67 1010.8
20260505054620 58 267 0.0 0.0 0.00 0.00 0.00 66 1010.7
20260505054118 57 267 0.0 0.9 0.00 0.00 0.00 66 1010.6
20260505053614 58 267 0.0 0.0 0.00 0.00 0.00 66 1010.7
20260505053111 58 267 0.0 0.0 0.00 0.00 0.00 65 1010.7
20260505052608 58 267 0.0 0.0 0.00 0.00 0.00 65 1010.9
20260505052106 58 267 0.0 0.0 0.00 0.00 0.00 64 1010.7
20260505051602 59 267 0.0 0.0 0.00 0.00 0.00 64 1010.6
20260505051100 59 267 0.0 0.0 0.00 0.00 0.00 63 1010.7
20260505050558 59 267 0.0 0.0 0.00 0.00 0.00 63 1010.6
20260505041526 62 267 0.0 0.0 0.00 0.00 0.00 57 1010.9
20260505041023 62 267 0.0 0.0 0.00 0.00 0.00 56 1011.0
20260505040520 62 267 0.0 0.0 0.00 0.00 0.00 56 1010.9
20260505040018 62 267 0.0 0.0 0.00 0.00 0.00 56 1010.9
20260505035513 62 267 0.0 0.0 0.00 0.00 0.00 56 1010.6
20260505035010 62 267 0.0 0.0 0.00 0.00 0.00 56 1010.6
20260505034507 62 267 0.0 0.0 0.00 0.00 0.00 56 1010.8
20260505034004 62 267 0.0 0.0 0.00 0.00 0.00 55 1010.6
20260505033501 63 267 0.0 0.0 0.00 0.00 0.00 55 1010.7
20260505032959 63 267 0.0 0.0 0.00 0.00 0.00 53 1010.5
20260505032456 63 267 0.0 0.0 0.00 0.00 0.00 53 1010.6
20260505031952 63 267 0.0 0.0 0.00 0.00 0.00 53 1010.7
20260505031449 63 267 0.0 0.0 0.00 0.00 0.00 53 1010.6
20260505030946 63 267 0.0 0.0 0.00 0.00 0.00 53 1010.8
20260505030442 64 267 0.0 0.0 0.00 0.00 0.00 52 1010.7
20260505025937 65 267 0.0 0.0 0.00 0.00 0.00 51 1010.6
20260505025435 65 267 0.0 0.0 0.00 0.00 0.00 50 1010.7
20260505024934 66 267 0.0 0.0 0.00 0.00 0.00 49 1010.5
20260505024431 66 267 0.0 0.0 0.00 0.00 0.00 48 1010.5
20260505023928 66 267 0.0 0.0 0.00 0.00 0.00 47 1010.5
20260505023425 67 267 0.0 0.0 0.00 0.00 0.00 47 1010.6
20260505022922 67 267 0.0 0.0 0.00 0.00 0.00 46 1010.6
20260505022420 67 267 0.0 0.9 0.00 0.00 0.00 46 1010.6
20260505021916 67 244 0.0 0.9 0.00 0.00 0.00 46 1010.5
20260505021413 67 259 0.9 0.9 0.00 0.00 0.00 46 1010.6
20260505020909 67 251 0.0 0.9 0.00 0.00 0.00 46 1010.6
20260505020404 67 250 0.0 0.0 0.00 0.00 0.00 45 1010.4
20260505015901 68 245 0.0 0.0 0.00 0.00 0.00 45 1010.6
20260505015358 68 257 0.0 0.0 0.00 0.00 0.00 44 1010.6
20260505014856 68 261 0.0 1.7 0.00 0.00 0.00 43 1010.4
20260505014352 68 287 0.0 0.9 0.00 0.00 0.00 43 1010.4
20260505013849 68 264 0.0 1.7 0.00 0.00 0.00 43 1010.2
20260505013346 68 248 0.0 0.0 0.00 0.00 0.00 43 1010.4
20260505012845 68 259 0.0 0.9 0.00 0.00 0.00 43 1010.2
20260505012343 68 275 0.9 0.9 0.00 0.00 0.00 43 1010.0
20260505011838 69 10 0.0 0.9 0.00 0.00 0.00 43 1009.9
20260505011335 69 19 0.0 0.0 0.00 0.00 0.00 42 1009.9
20260505010831 69 276 0.0 0.9 0.00 0.00 0.00 42 1010.0
20260505010327 69 291 0.0 0.9 0.00 0.00 0.00 42 1010.0
20260505005823 69 262 0.0 1.7 0.00 0.00 0.00 41 1010.0
20260505005320 69 246 0.0 1.7 0.00 0.00 0.00 41 1009.9
20260505004818 69 239 0.0 0.0 0.00 0.00 0.00 40 1009.7
20260505004314 70 201 0.0 0.0 0.00 0.00 0.00 40 1009.8
20260505003812 70 201 0.0 0.0 0.00 0.00 0.00 39 1009.7
20260505003309 71 201 0.0 0.0 0.00 0.00 0.00 38 1009.8
20260505002805 71 201 0.0 0.9 0.00 0.00 0.00 37 1009.7
20260505002304 72 203 0.0 0.9 0.00 0.00 0.00 37 1009.8
20260505001800 72 202 0.0 0.9 0.00 0.00 0.00 36 1009.9
20260505001257 73 211 0.0 0.9 0.00 0.00 0.00 35 1009.6
20260505000754 73 166 0.0 2.6 0.00 0.00 0.00 35 1009.7
20260505000252 73 258 0.9 2.6 0.00 0.00 0.00 35 1009.8
20260504235748 73 71 0.0 2.6 0.00 0.00 0.00 34 1009.5
20260504235244 73 246 0.9 5.2 0.00 0.00 0.00 34 1009.3
20260504234742 73 94 0.9 0.9 0.00 0.00 0.00 34 1009.6
20260504234239 74 317 0.0 1.7 0.00 0.00 0.00 34 1009.5
20260504233735 74 260 1.7 2.6 0.00 0.00 0.00 34 1009.6
20260504233231 74 213 0.9 5.2 0.00 0.00 0.00 33 1009.8
20260504232729 74 301 2.6 2.6 0.00 0.00 0.00 33 1009.4
20260504232225 74 248 0.0 2.6 0.00 0.00 0.00 33 1009.1
20260504231722 75 223 0.9 2.6 0.00 0.00 0.00 32 1009.4
20260504231219 75 245 0.9 2.6 0.00 0.00 0.00 32 1009.5
20260504230715 75 228 0.9 0.9 0.00 0.00 0.00 32 1009.4
20260504230214 75 268 0.9 5.2 0.00 0.00 0.00 31 1009.4
20260504225712 76 279 3.5 6.1 0.00 0.00 0.00 30 1009.4
20260504225207 77 240 0.9 5.2 0.00 0.00 0.00 30 1009.5
20260504224705 77 103 0.9 1.7 0.00 0.00 0.00 29 1009.2
20260504224202 77 162 1.7 5.2 0.00 0.00 0.00 30 1009.2
20260504223658 77 215 1.7 5.2 0.00 0.00 0.00 31 1009.5
20260504223154 77 251 0.9 2.6 0.00 0.00 0.00 31 1009.4
20260504222651 77 256 1.7 7.8 0.00 0.00 0.00 30 1009.3
20260504222148 78 92 0.9 1.7 0.00 0.00 0.00 30 1009.4
20260504221645 78 88 0.9 1.7 0.00 0.00 0.00 29 1009.4
20260504221142 77 102 1.7 3.5 0.00 0.00 0.00 29 1009.3
20260504220638 78 139 1.7 2.6 0.00 0.00 0.00 29 1009.4
20260504220137 78 176 0.9 3.5 0.00 0.00 0.00 29 1009.4
20260504215632 78 95 1.7 2.6 0.00 0.00 0.00 29 1009.5
20260504215130 77 160 0.9 0.9 0.00 0.00 0.00 29 1009.4
20260504214626 78 170 0.9 3.5 0.00 0.00 0.00 28 1009.5
20260504214122 78 209 4.3 7.8 0.00 0.00 0.00 29 1009.3
20260504213619 77 114 1.7 3.5 0.00 0.00 0.00 29 1009.6
20260504213116 77 323 0.9 2.6 0.00 0.00 0.00 30 1009.4
20260504212612 78 103 1.7 5.2 0.00 0.00 0.00 29 1009.6
20260504212109 79 221 6.1 9.6 0.00 0.00 0.00 28 1009.4
20260504211606 78 27 0.9 7.0 0.00 0.00 0.00 28 1009.4
20260504211103 78 219 1.7 2.6 0.00 0.00 0.00 28 1009.3
20260504210600 77 269 0.0 1.7 0.00 0.00 0.00 28 1009.3
20260504210056 76 273 1.7 3.5 0.00 0.00 0.00 28 1009.4
20260504205554 76 261 0.0 1.7 0.00 0.00 0.00 28 1009.6
20260504205052 77 172 1.7 3.5 0.00 0.00 0.00 27 1009.4
20260504204550 79 206 0.9 1.7 0.00 0.00 0.00 27 1009.5
20260504204049 80 341 1.7 2.6 0.00 0.00 0.00 25 1009.4
20260504203546 80 110 0.9 5.2 0.00 0.00 0.00 26 1009.4
20260504203044 80 102 1.7 1.7 0.00 0.00 0.00 26 1009.5
20260504202539 80 141 0.0 3.5 0.00 0.00 0.00 25 1009.4
20260504202036 81 241 1.7 1.7 0.00 0.00 0.00 25 1009.9
20260504201533 80 298 0.9 1.7 0.00 0.00 0.00 25 1009.6
20260504201031 80 308 1.7 3.5 0.00 0.00 0.00 25 1009.7
20260504200527 80 306 3.5 5.2 0.00 0.00 0.00 25 1009.8
20260504200024 81 196 0.9 3.5 0.00 0.00 0.00 25 1009.9
20260504195520 81 299 0.9 3.5 0.00 0.00 0.00 26 1009.9
20260504195017 80 266 0.9 1.7 0.00 0.00 0.00 27 1009.7
20260504194513 78 262 3.5 5.2 0.00 0.00 0.00 27 1009.7
20260504194008 79 206 1.7 3.5 0.00 0.00 0.00 26 1010.0
20260504193506 80 78 0.9 5.2 0.00 0.00 0.00 25 1010.1
20260504193005 80 23 1.7 5.2 0.00 0.00 0.00 24 1010.2
20260504192502 79 5 0.9 1.7 0.00 0.00 0.00 27 1010.3
20260504192000 79 274 2.6 3.5 0.00 0.00 0.00 25 1010.4
20260504191458 79 241 4.3 7.0 0.00 0.00 0.00 26 1010.6
20260504190953 78 87 1.7 6.1 0.00 0.00 0.00 29 1010.6
20260504190449 78 7 2.6 3.5 0.00 0.00 0.00 27 1010.7
20260504185946 79 272 0.0 1.7 0.00 0.00 0.00 26 1010.9
20260504185443 78 262 0.9 2.6 0.00 0.00 0.00 29 1010.9
20260504184939 78 130 1.7 1.7 0.00 0.00 0.00 27 1011.0
20260504184435 77 72 0.9 1.7 0.00 0.00 0.00 27 1011.3